Deer Park, WA
on Thursday, February 21, 2013

Thursday
Previous Day Next Day
Daily Summary
 ActualAverageRecord
Temperature
Mean Temperature °F / °C 31°F / -1°C  
Max Temperature 34°F / 1°C 41°F / 5°C 50°F / 10°C (2003)
Min Temperature 13°F / -11°C 22°F / -6°C 9°F / -12°C (2008)
Degree Days
Heating Degree Days 41 34  
Month to date heating degree days 734 739  
Since 1 July heating degree days 4842 5135  
Cooling Degree Days 0 0  
Month to date cooling degree days 0 0  
Year to date cooling degree days 0 0  
Moisture
Dew Point 25°F / -4°C   
Average Humidity 92    
Maximum Humidity 100    
Minimum Humidity 84    
Precipitation
Precipitation 0.09 in / 2.29 cm 0.04 in / 1.02 cm 0.37 in / 0.94 cm (1999)
Month to date precipitation 0.24 1.24  
Year to date precipitation 1.74 3.87  
Wind
Wind Speed 3 mph / 4 km/h   
Max Wind Speed 9 mph / 14 km/h   
Max Gust Speed 12 mph / 19 km/h   
Visibility 6 miles / 10 kilometers   
Events Fog , Snow   

Key: T is trace of precipitation, MM is missing value
Source: NWS Daily Summary
Time(PST)TemperatureDew PointHumidity Pressure Visibility Wind DirectionWind SpeedGust SpeedPrecipitationEvents Conditions
12:08 AM 15.8°F / -9.0°C 12.2°F / -11.0°C 86% 29.97 in / 1014.8 hPa 1.8 miles / 2.8 kilometers Calm Calm - N/A   Clear
12:13 AM 15.8°F / -9.0°C 14.0°F / -10.0°C 93% 29.97 in / 1014.8 hPa 3.0 miles / 4.8 kilometers Calm Calm - N/A   Clear
12:18 AM 15.8°F / -9.0°C 15.8°F / -9.0°C 100% 29.97 in / 1014.8 hPa 2.0 miles / 3.2 kilometers Calm Calm - N/A   Partly Cloudy
12:21 AM 15.8°F / -9.0°C 15.8°F / -9.0°C 100% 29.97 in / 1014.8 hPa 1.0 miles / 1.6 kilometers Calm Calm - N/A   Mist
12:25 AM 15.8°F / -9.0°C 15.8°F / -9.0°C 100% 29.97 in / 1014.8 hPa 0.8 miles / 1.2 kilometers Calm Calm - N/A   Clear
12:31 AM 12.2°F / -11.0°C 10.4°F / -12.0°C 92% 29.97 in / 1014.8 hPa 2.0 miles / 3.2 kilometers Calm Calm - N/A   Clear
12:38 AM 15.8°F / -9.0°C 12.2°F / -11.0°C 86% 29.97 in / 1014.8 hPa 10.0 miles / 16.1 kilometers Calm Calm - N/A   Clear
12:53 AM 15.1°F / -9.4°C 12.9°F / -10.6°C 91% 30.05 in / 1017.6 hPa 8.0 miles / 12.9 kilometers Calm Calm - N/A   Mostly Cloudy
1:53 AM 18.0°F / -7.8°C 17.1°F / -8.3°C 96% 30.06 in / 1017.7 hPa 10.0 miles / 16.1 kilometers Calm Calm - N/A   Overcast
2:53 AM 21.0°F / -6.1°C 19.0°F / -7.2°C 92% 30.06 in / 1017.7 hPa 10.0 miles / 16.1 kilometers Calm Calm - N/A   Overcast
3:53 AM 23.0°F / -5.0°C 21.0°F / -6.1°C 92% 30.06 in / 1017.7 hPa 10.0 miles / 16.1 kilometers Calm Calm - N/A   Overcast
4:53 AM 23.0°F / -5.0°C 21.0°F / -6.1°C 92% 30.05 in / 1017.5 hPa 10.0 miles / 16.1 kilometers ENE 4.6 mph / 7.4 km/h - N/A   Overcast
5:53 AM 19.9°F / -6.7°C 18.0°F / -7.8°C 92% 30.06 in / 1018.0 hPa 10.0 miles / 16.1 kilometers Calm Calm - N/A   Mostly Cloudy
6:53 AM 21.9°F / -5.6°C 19.9°F / -6.7°C 92% 30.06 in / 1018.0 hPa 10.0 miles / 16.1 kilometers Calm Calm - N/A   Overcast
7:18 AM 21.2°F / -6.0°C 21.2°F / -6.0°C 100% 29.98 in / 1015.1 hPa 10.0 miles / 16.1 kilometers NNW 4.6 mph / 7.4 km/h - N/A   Overcast
7:28 AM 23.0°F / -5.0°C 21.2°F / -6.0°C 93% 29.98 in / 1015.1 hPa 10.0 miles / 16.1 kilometers North 3.5 mph / 5.6 km/h - N/A   Overcast
7:53 AM 24.1°F / -4.4°C 23.0°F / -5.0°C 96% 30.08 in / 1018.4 hPa 10.0 miles / 16.1 kilometers Calm Calm - N/A   Overcast
8:53 AM 27.0°F / -2.8°C 25.0°F / -3.9°C 92% 30.07 in / 1018.3 hPa 10.0 miles / 16.1 kilometers Calm Calm - N/A   Overcast
9:00 AM 26.6°F / -3.0°C 24.8°F / -4.0°C 93% 29.99 in / 1015.5 hPa 8.0 miles / 12.9 kilometers Calm Calm - 0.00 in / 0.0 cm Snow Light Snow
9:53 AM 28.9°F / -1.7°C 26.1°F / -3.3°C 89% 30.07 in / 1018.2 hPa 10.0 miles / 16.1 kilometers Calm Calm - 0.00 in / 0.0 cm   Overcast
10:53 AM 30.0°F / -1.1°C 27.0°F / -2.8°C 88% 30.06 in / 1017.9 hPa 8.0 miles / 12.9 kilometers Calm Calm - N/A   Overcast
11:03 AM 30.2°F / -1.0°C 26.6°F / -3.0°C 86% 29.97 in / 1014.8 hPa 2.5 miles / 4.0 kilometers Calm Calm - 0.00 in / 0.0 cm Snow Light Snow
11:10 AM 30.2°F / -1.0°C 26.6°F / -3.0°C 86% 29.97 in / 1014.8 hPa 0.8 miles / 1.2 kilometers Calm Calm - 0.00 in / 0.0 cm Snow Light Snow
11:53 AM 30.0°F / -1.1°C 28.9°F / -1.7°C 96% 30.04 in / 1017.2 hPa 0.5 miles / 0.8 kilometers Calm Calm - 0.02 in / 0.5 cm Fog , Snow Snow
12:27 PM 30.2°F / -1.0°C 28.4°F / -2.0°C 93% 29.95 in / 1014.1 hPa 0.8 miles / 1.2 kilometers Calm Calm - 0.03 in / 0.8 cm Snow Light Snow
12:53 PM 30.0°F / -1.1°C 30.0°F / -1.1°C 100% 30.03 in / 1016.9 hPa 1.0 miles / 1.6 kilometers Calm Calm - 0.03 in / 0.8 cm Snow Light Snow
1:02 PM 30.2°F / -1.0°C 30.2°F / -1.0°C 100% 29.94 in / 1013.8 hPa 0.8 miles / 1.2 kilometers Calm Calm - 0.01 in / 0.3 cm Snow Light Snow
1:26 PM 30.2°F / -1.0°C 30.2°F / -1.0°C 100% 29.94 in / 1013.8 hPa 1.0 miles / 1.6 kilometers Calm Calm - 0.02 in / 0.5 cm Snow Light Snow
1:35 PM 30.2°F / -1.0°C 30.2°F / -1.0°C 100% 29.94 in / 1013.8 hPa 0.8 miles / 1.2 kilometers Calm Calm - 0.02 in / 0.5 cm Snow Light Snow
1:53 PM 30.9°F / -0.6°C 30.0°F / -1.1°C 96% 30.02 in / 1016.6 hPa 0.8 miles / 1.2 kilometers Calm Calm - 0.03 in / 0.8 cm Snow Light Snow
2:20 PM 32.0°F / 0.0°C 30.2°F / -1.0°C 93% 29.94 in / 1013.8 hPa 1.0 miles / 1.6 kilometers Calm Calm - 0.01 in / 0.3 cm Snow Light Snow
2:27 PM 32.0°F / 0.0°C 30.2°F / -1.0°C 93% 29.94 in / 1013.8 hPa 1.0 miles / 1.6 kilometers Calm Calm - 0.01 in / 0.3 cm Snow Light Snow
2:53 PM 33.1°F / 0.6°C 30.9°F / -0.6°C 92% 30.01 in / 1016.2 hPa 2.5 miles / 4.0 kilometers South 5.8 mph / 9.3 km/h - 0.01 in / 0.3 cm Snow Light Snow
3:01 PM 33.8°F / 1.0°C 30.2°F / -1.0°C 87% 29.94 in / 1013.8 hPa 6.0 miles / 9.7 kilometers SSE 8.1 mph / 13.0 km/h - 0.00 in / 0.0 cm   Overcast
3:25 PM 33.8°F / 1.0°C 30.2°F / -1.0°C 87% 29.94 in / 1013.8 hPa 10.0 miles / 16.1 kilometers SSE 6.9 mph / 11.1 km/h - 0.00 in / 0.0 cm   Overcast
3:51 PM 33.8°F / 1.0°C 30.2°F / -1.0°C 87% 29.94 in / 1013.8 hPa 10.0 miles / 16.1 kilometers SSE 6.9 mph / 11.1 km/h - 0.00 in / 0.0 cm   Overcast
3:53 PM 33.1°F / 0.6°C 30.9°F / -0.6°C 92% 30.01 in / 1016.1 hPa 10.0 miles / 16.1 kilometers SSE 8.1 mph / 13.0 km/h - 0.00 in / 0.0 cm   Overcast
4:08 PM 33.8°F / 1.0°C 30.2°F / -1.0°C 87% 29.95 in / 1014.1 hPa 10.0 miles / 16.1 kilometers SSE 5.8 mph / 9.3 km/h - N/A   Overcast
4:53 PM 32.0°F / 0.0°C 30.9°F / -0.6°C 96% 30.01 in / 1016.2 hPa 10.0 miles / 16.1 kilometers SE 5.8 mph / 9.3 km/h - N/A   Overcast
5:53 PM 30.9°F / -0.6°C 30.9°F / -0.6°C 100% 30.02 in / 1016.4 hPa 4.0 miles / 6.4 kilometers Calm Calm - N/A   Scattered Clouds
6:10 PM 30.2°F / -1.0°C 30.2°F / -1.0°C 100% 29.94 in / 1013.8 hPa 2.0 miles / 3.2 kilometers Calm Calm - N/A   Partly Cloudy
6:21 PM 30.2°F / -1.0°C 28.4°F / -2.0°C 93% 29.94 in / 1013.8 hPa 4.0 miles / 6.4 kilometers Calm Calm - N/A   Mostly Cloudy
6:42 PM 28.4°F / -2.0°C 28.4°F / -2.0°C 100% 29.95 in / 1014.1 hPa 6.0 miles / 9.7 kilometers ESE 3.5 mph / 5.6 km/h - N/A   Overcast
6:53 PM 30.9°F / -0.6°C 30.0°F / -1.1°C 96% 30.02 in / 1016.6 hPa 9.0 miles / 14.5 kilometers ESE 3.5 mph / 5.6 km/h - N/A   Overcast
7:53 PM 32.0°F / 0.0°C 30.9°F / -0.6°C 96% 30.01 in / 1016.2 hPa 10.0 miles / 16.1 kilometers SE 4.6 mph / 7.4 km/h - N/A   Overcast
8:53 PM 33.1°F / 0.6°C 30.9°F / -0.6°C 92% 30.01 in / 1016.0 hPa 10.0 miles / 16.1 kilometers SSE 6.9 mph / 11.1 km/h - N/A   Overcast
9:53 PM 32.0°F / 0.0°C 30.0°F / -1.1°C 92% 30.01 in / 1016.3 hPa 10.0 miles / 16.1 kilometers SSE 6.9 mph / 11.1 km/h - N/A   Overcast
11:29 PM 28.4°F / -2.0°C 28.4°F / -2.0°C 100% 29.94 in / 1013.8 hPa 10.0 miles / 16.1 kilometers SE 6.9 mph / 11.1 km/h - N/A   Mostly Cloudy
11:53 PM 32.0°F / 0.0°C 30.0°F / -1.1°C 92% 30.00 in / 1015.9 hPa 10.0 miles / 16.1 kilometers SSE 6.9 mph / 11.1 km/h - N/A   Overcast
Moon Phase
Feb. 21 Feb. 25 Mar. 04 Mar. 11 Mar. 19
Sunrise:06:44 AM (PST) Moon Rise:01:30 PM (PST)2/21
Sunset:05:22 PM (PST) Moon Set:04:04 AM (PST)2/21

Copyright © 2014 The Weather Underground, Inc.